Current Version              Previous Version:    01  02  03  04  05  06  07  08  09  10  11  12  13  14  15  16  17  18  19  20  21  22  23  24  25  26  27  28  29  30  
   31  32  33  34  35  36  37  38  39  40  41  42  43  44  45  46  47  48  49  50  51  52  53  54  55  56  57  58  59  60  

[Printable]
408
ASUS44 KLUB 311710
RWRTX
WEST TEXAS WEATHER ROUNDUP
NATIONAL WEATHER SERVICE LUBBOCK TX
1100 AM CST SAT JAN 31 2015

NOTE: "FAIR" INDICATES FEW OR NO CLOUDS BELOW 12,000 FEET WITH NO
SIGNIFICANT WEATHER AND/OR OBSTRUCTIONS TO VISIBILITY.

TXZ004-006>008-010-012-014-016-OKZ002-311800-
TEXAS PANHANDLE/OKLAHOMA PANHANDLE

CITY           SKY/WX    TMP DP  RH WIND       PRES   REMARKS
AMARILLO       LGT RAIN  34  33  96 S10       30.01F WCI  26
BORGER         LGT RAIN  37  34  89 S7        30.01F WCI  32
CANADIAN       LGT RAIN  39  38  97 S9        30.04S WCI  33
DALHART        CLOUDY    37  34  89 S13       29.96F WCI  29
DUMAS          LGT RAIN  34  33  95 S10       29.98F WCI  26
GUYMON         CLOUDY    37  35  92 S17       29.96F WCI  27
HEREFORD       DRIZZLE   37  37  99 S8        30.00S WCI  31
PAMPA          DRIZZLE   35  34  96 S14       30.02F WCI  26
PERRYTON       CLOUDY    37  36  93 S16       30.00S WCI  28
$$

TXZ026-029-035-045-048-311800-
SOUTHERN PANHANDLE/SOUTH PLAINS/ROLLING PLAINS

CITY           SKY/WX    TMP DP  RH WIND       PRES   REMARKS
CHILDRESS      RAIN      40  39  97 SE14      30.07F FOG     WCI  32
SEMINOLE       DRIZZLE   40  40 100 SE6       30.00F
LUBBOCK        LGT RAIN  38  38 100 SE7       30.00F FOG     WCI  33
PLAINVIEW      DRIZZLE   37  37  97 SE8       30.00F WCI  31
SNYDER         DRIZZLE  N/A N/A N/A SE12      30.02S
$$

TXZ052-054-060>062-072-078-127-140-154-169-311800-
PERMIAN BASIN/CONCHO VALLEY/BIG COUNTRY/EDWARDS PLATEAU

CITY           SKY/WX    TMP DP  RH WIND       PRES   REMARKS
ABILENE        LGT RAIN  45  43  93 S10       30.06F FOG
BIG SPRING     CLOUDY    49  46  88 S8        30.04R
BROWNWOOD      LGT RAIN  48  45  87 SE12      30.08F
JUNCTION       LGT RAIN  50  49  96 E8        30.05F
MIDLAND        LGT RAIN  48  46  93 S8        29.99F FOG
ODESSA         CLOUDY    47  45  93 S6        29.99S FOG
SAN ANGELO     LGT RAIN  50  48  93 CALM      30.04F
SONORA         DRIZZLE   52  52 100 SE7       30.07F
SWEETWATER     CLOUDY    45  45 100 SE16      30.04F
WINK           CLOUDY    48  44  86 SE10      29.96F
$$

TXZ055-058-074-075-080-082-311800-
FAR WEST/SOUTHWEST MOUNTAINS/TRANS PECOS

CITY           SKY/WX    TMP DP  RH WIND       PRES   REMARKS
ALPINE         CLOUDY    56  47  73 S21G26    30.02S
DRYDEN           N/A     49  48  97 SE9       30.00S
EL PASO        LGT RAIN  45  44  97 NE6       29.92R
FORT STOCKTON  CLOUDY    50  47  89 SE9       29.97S
GUADALUPE PASS FOG       44  44 100 SW10      29.97S VSB<1/4
MARFA          CLOUDY    48  46  93 S14       29.99S
PECOS          CLOUDY    46  44  93 CALM      29.97F FOG
PRESIDIO       PTSUNNY   54  52  92 E7        29.96S
$$

TXZ014-016-019-021>030-083-311800
TEXAS TECH WEST TEXAS MESONET/TEXAS PANHANDLE/NORTHERN SOUTH PLAINS

CITY           SKY/WX    TMP DP  RH WIND       PRES   REMARKS
ABERNATHY 5ENE LGT RAIN  37  37  99 SE8       30.02F WCI  31
AMARILLO 9NNE    N/A     35  34  95 S10       30.01S WCI  27
AMARILLO 7SSE    N/A     34  33  97 SE8       30.01F WCI  27
AMHERST 1NE      N/A     35  35  99 SE7       30.00S WCI  30
BOOTLEG 11WNW    N/A     34  33  96 S8        29.99F WCI  27
CANADIAN 6E      N/A     37  37  98 S8        30.03S WCI  31
CAPROCK CYN SP LGT RAIN  36  36  99 SE2       30.05S
CLARENDON 2WSW   N/A     37  35  94 SE9       30.04S WCI  30
CLAUDE 12SW      N/A     33  33  99 SE5       30.01F WCI  29
DIMMITT 2NE      N/A     34  33  97 SE9       30.00S WCI  27
FLOYDADA 2NNE    N/A     38  37  99 SE7       30.02S WCI  32
FRIONA 2NE       N/A     35  34  96 S8        30.00S WCI  28
GOODLETT 3W      N/A     41  39  94 SE9       30.07S
HART 3N          N/A     35  35  99 SE7       30.00F WCI  29
HEREFORD 2NW     N/A     35  34  94 SE6       30.00S WCI  30
MCLEAN 1E        N/A     36  36  99 S12       30.02S WCI  28
MEMPHIS 1NE    LGT RAIN  39  38  98 SE7       30.07S WCI  34
MULESHOE 2SSW    N/A     36  35  99 SE5       29.99F WCI  32
OLTON 6S         N/A     36  35  96 SE8       30.00F WCI  30
PALO DURO SP     N/A     34  33  96 SE6       30.02F WCI  28
PAMPA 2E         N/A     35  35  99 S13       30.02S WCI  26
PLAINVIEW 1S     N/A     37  36  99 SE8       30.00F WCI  30
SILVERTON 7ESE   N/A     35  35  97 SE5       30.03F WCI  31
TULIA 2ENE       N/A     35  35  99 SE7       30.01F WCI  29
TURKEY 2WSW      N/A     38  37  99 SE5       30.04F WCI  34
UMBARGER 3NNE    N/A     35  33  95 S7        30.00F WCI  29
$$

TXZ033>036-039>041-045>048-311800
TEXAS TECH WEST TEXAS MESONET/SOUTH PLAINS

CITY           SKY/WX    TMP DP  RH WIND       PRES   REMARKS
AIKEN 3WSW       N/A     37  37  99 SE10      30.02F WCI  30
ANDREWS 2NE    LGT RAIN  42  41  95 SE6       29.99F
BROWNFIELD 2S  LGT RAIN  39  38  99 SE8       30.00F WCI  33
DENVR CTY 7WNW   N/A     39  39  98 SE5       29.98F
GAIL 2ESE        N/A     42  41  96 SE5       30.01F
LAMESA 2SE     LGT RAIN  40  40  99 E6        30.00F
LEVELLAND 4S     N/A     38  37  94 SE5       29.99F WCI  35
LUBBOCK 3WNW   LGT RAIN  39  38  99 SE6       30.02S WCI  34
MORTON 1ENE      N/A     37  36  99 SE6       29.99S WCI  32
ODONNELL 1N      N/A     40  39  97 SE7       30.01S WCI  35
PLAINS 3N        N/A     39  38  98 SE7       29.98F WCI  34
RALLS 1SE        N/A     38  38  99 SE7       30.03S WCI  33
REESE CENTER     N/A     38  37  99 SE7       30.00F WCI  32
SEAGRAVES 1SW    N/A     40  40  99 SE5       29.99F
SEMINOLE 2NNE    N/A     40  39  97 E8        29.99F WCI  35
SLATON 2NE     LGT RAIN  38  37  99 SE6       30.02F WCI  33
SNYDER 3E        N/A     43  43  99 SE10      30.01S
SUNDOWN 8SW      N/A     39  38  99 E6        29.98F WCI  35
TAHOKA 3NNE      N/A     39  39  99 E5        30.01S
WOLFFORTH 6SSW LGT RAIN  40  39  99 SE7       30.01S WCI  35
$$

TXZ031-032-036>038-042>044-311800-
TEXAS TECH WEST TEXAS MESONET/ROLLING PLAINS

CITY           SKY/WX    TMP DP  RH WIND       PRES   REMARKS
ASPERMONT 3NE  LGT RAIN  44  43  97 E7        30.05F
FLUVANNA 3WNW    N/A     42  41  95 SE7       30.02R
GRAHAM 5SSW      N/A     39  38  97 SE5       30.01F
GUTHRIE 10WSW  LGT RAIN  41  40  97 SE8       30.04S
HASKELL 1NW    LGT RAIN  43  42  95 SE7       30.06F
JAYTON 1SSE      N/A     42  42  98 E8        30.03F
KNOX CITY 3NW    N/A     44  40  88 SE10      30.07F
LK A HENRY 1NW   N/A     42  41  97 E2        30.02F
NORTHFIELD 1S  LGT RAIN  40  39  99 SE6       30.06S
ODELL 4ENE       N/A     41  40  96 SE13      30.09F
PADUCAH 10SW   LGT RAIN  40  39  97 SE9       30.05S WCI  34
POST 1NE       LGT RAIN  40  39  98 E2        30.03S
RRING SPRGS 3N   N/A     39  38  99 SE5       30.03F
SEYMOUR 3NW      N/A     43  40  89 SE9       30.09F
SPUR 1W          N/A     40  39  97 E3        30.03S
WEINERT 2NNE     N/A     44  41  91 SE12      30.07F
WHITE RVR 6NE  LGT RAIN  39  38  98 E3        30.03R
$$

TXZ052-054-060>062-072-078-127-140-154-169-311800-
TEXAS TECH WEST TEXAS MESONET/PERMIAN BASIN/
CONCHO VALLEY/BIG COUNTRY/EDWARDS PLATEAU

CITY           SKY/WX    TMP DP  RH WIND       PRES   REMARKS
COYANOSA 2N      N/A     50  46  87 SW2       29.97F
JUNCTION 1SSW    N/A     51  49  94 S3        30.06F
MERTZON 3NNE     N/A     48  47  97 NE2       30.04F
SAN ANGELO 7NW   N/A     46  44  94 E6        30.05S
STRLNG CT 4WSW   N/A     47  46  97 E9        30.02F
ST LAWRNCE 5SW   N/A     47  47  99 SE14      30.00S
SWEETWATR 11SW   N/A     44  43  97 SE15      30.02F
WALL 1E          N/A     47  45  91 NE2       30.05S
$$

TXZ055-058-074-075-080-082-311800-
TEXAS TECH WEST TEXAS MESONET/FAR WEST/SOUTHWEST MOUNTAINS/TRANS PECOS

CITY           SKY/WX    TMP DP  RH WIND       PRES   REMARKS
PRSMN GAP BBNP   N/A     48  47  99 NE13      29.99S
GUADLPE MTN NP   N/A     43  43  97 SW9       29.96F
$$